• In Uzbekistan
  • List of Countries
  • For 7 days
  • Water Temperature
  • Satellite Maps
  • Weather Map
  • Weather Widgets
  • user-avatar
    Login

    Hourly Weather Palenque

    Today, 26 April, Friday

    Time Temperature Precipitation Wind Pressure Humidity
    00:00 +28°C° 0 mm 1 mps 754 mmHg 71%
    01:00 +27°C° 0 mm 1 mps 754 mmHg 74%
    02:00 +27°C° 0 mm 1 mps 754 mmHg 77%
    03:00 +27°C° 0 mm 1 mps 754 mmHg 80%
    04:00 +26°C° 0 mm 1 mps 755 mmHg 83%
    05:00 +26°C° 0 mm 2 mps 755 mmHg 85%
    06:00 +26°C° 0 mm 2 mps 755 mmHg 88%
    07:00 +28°C° 0 mm 2 mps 755 mmHg 80%
    08:00 +30°C° 0 mm 3 mps 756 mmHg 72%
    09:00 +33°C° 0 mm 4 mps 756 mmHg 64%
    10:00 +34°C° 0 mm 4 mps 756 mmHg 60%
    11:00 +35°C° 0 mm 4 mps 755 mmHg 55%
    12:00 +36°C° 0 mm 4 mps 755 mmHg 51%
    13:00 +36°C° 0.1 mm 4 mps 755 mmHg 51%
    14:00 +36°C° 0.1 mm 4 mps 754 mmHg 51%
    15:00 +36°C° 0.1 mm 4 mps 754 mmHg 52%
    16:00 +35°C° 0.8 mm 4 mps 754 mmHg 59%
    17:00 +33°C° 0.8 mm 3 mps 754 mmHg 66%
    18:00 +30°C° 0.8 mm 3 mps 754 mmHg 73%
    19:00 +29°C° 0.4 mm 3 mps 755 mmHg 77%
    20:00 +28°C° 0.4 mm 2 mps 756 mmHg 81%
    21:00 +27°C° 0.4 mm 2 mps 756 mmHg 84%
    22:00 +27°C° 0 mm 2 mps 756 mmHg 87%
    23:00 +26°C° 0 mm 2 mps 756 mmHg 89%

    Tomorrow, 27 April, Saturday

    Time Temperature Precipitation Wind Pressure Humidity
    00:00 +26°C° 0 mm 1 mps 756 mmHg 92%
    01:00 +26°C° 0 mm 1 mps 756 mmHg 92%
    02:00 +25°C° 0 mm 1 mps 756 mmHg 92%
    03:00 +25°C° 0 mm 1 mps 755 mmHg 93%
    04:00 +25°C° 0 mm 1 mps 755 mmHg 92%
    05:00 +25°C° 0 mm 1 mps 755 mmHg 92%
    06:00 +25°C° 0 mm 1 mps 755 mmHg 92%
    07:00 +27°C° 0 mm 1 mps 755 mmHg 83%
    08:00 +29°C° 0 mm 1 mps 756 mmHg 75%
    09:00 +30°C° 0 mm 1 mps 756 mmHg 67%
    10:00 +32°C° 0.1 mm 1 mps 755 mmHg 62%
    11:00 +34°C° 0.1 mm 2 mps 755 mmHg 58%
    12:00 +35°C° 0.1 mm 2 mps 755 mmHg 54%
    13:00 +35°C° 0.1 mm 2 mps 754 mmHg 55%
    14:00 +35°C° 0.1 mm 3 mps 753 mmHg 56%
    15:00 +35°C° 0.1 mm 3 mps 752 mmHg 57%
    16:00 +34°C° 0.3 mm 3 mps 752 mmHg 64%
    17:00 +33°C° 0.3 mm 3 mps 752 mmHg 70%
    18:00 +30°C° 0.3 mm 2 mps 752 mmHg 76%
    19:00 +29°C° 0.1 mm 2 mps 752 mmHg 80%
    20:00 +28°C° 0.1 mm 1 mps 753 mmHg 83%
    21:00 +28°C° 0.1 mm 1 mps 754 mmHg 86%
    22:00 +27°C° 0 mm 1 mps 754 mmHg 87%
    23:00 +25°C° 0 mm 0 mps 754 mmHg 89%

    Day after tomorrow, 28 April, Sunday

    Time Temperature Precipitation Wind Pressure Humidity
    00:00 +24°C° 0 mm 0 mps 754 mmHg 90%
    01:00 +24°C° 0 mm 0 mps 753 mmHg 91%
    02:00 +24°C° 0 mm 0 mps 753 mmHg 92%
    03:00 +23°C° 0 mm 0 mps 753 mmHg 92%
    04:00 +23°C° 0 mm 0 mps 753 mmHg 93%
    05:00 +23°C° 0 mm 0 mps 753 mmHg 93%
    06:00 +23°C° 0 mm 0 mps 753 mmHg 93%
    07:00 +25°C° 0 mm 0 mps 753 mmHg 84%
    08:00 +29°C° 0 mm 1 mps 754 mmHg 75%
    09:00 +31°C° 0 mm 1 mps 754 mmHg 66%
    10:00 +33°C° 0 mm 1 mps 754 mmHg 60%
    11:00 +36°C° 0 mm 2 mps 753 mmHg 54%
    12:00 +38°C° 0 mm 2 mps 753 mmHg 47%
    13:00 +38°C° 0 mm 2 mps 752 mmHg 45%
    14:00 +39°C° 0 mm 2 mps 751 mmHg 43%
    15:00 +39°C° 0 mm 2 mps 750 mmHg 41%
    16:00 +38°C° 0 mm 2 mps 750 mmHg 44%
    17:00 +36°C° 0 mm 1 mps 750 mmHg 47%
    18:00 +35°C° 0 mm 1 mps 750 mmHg 50%
    19:00 +33°C° 0 mm 1 mps 751 mmHg 55%
    20:00 +32°C° 0 mm 1 mps 752 mmHg 60%
    21:00 +30°C° 0 mm 1 mps 753 mmHg 65%
    22:00 +30°C° 0 mm 1 mps 753 mmHg 67%
    23:00 +29°C° 0 mm 1 mps 753 mmHg 69%

    29 April, Monday

    Time Temperature Precipitation Wind Pressure Humidity
    00:00 +29°C° 0 mm 1 mps 753 mmHg 71%
    01:00 +28°C° 0 mm 1 mps 753 mmHg 70%
    02:00 +28°C° 0 mm 2 mps 753 mmHg 70%
    03:00 +27°C° 0 mm 3 mps 752 mmHg 70%
    04:00 +27°C° 0 mm 3 mps 753 mmHg 71%
    05:00 +27°C° 0 mm 3 mps 753 mmHg 71%
    06:00 +26°C° 0 mm 2 mps 753 mmHg 72%
    07:00 +29°C° 0 mm 3 mps 753 mmHg 64%
    08:00 +31°C° 0 mm 3 mps 754 mmHg 56%
    09:00 +35°C° 0 mm 3 mps 754 mmHg 48%
    10:00 +37°C° 0 mm 3 mps 754 mmHg 43%
    11:00 +38°C° 0 mm 3 mps 753 mmHg 38%
    12:00 +40°C° 0 mm 3 mps 753 mmHg 33%
    13:00 +42°C° 0 mm 4 mps 752 mmHg 32%
    14:00 +42°C° 0 mm 4 mps 751 mmHg 30%
    15:00 +42°C° 0 mm 4 mps 750 mmHg 29%
    16:00 +39°C° 0 mm 3 mps 750 mmHg 32%
    17:00 +38°C° 0 mm 3 mps 750 mmHg 36%
    18:00 +36°C° 0 mm 2 mps 750 mmHg 40%
    19:00 +35°C° 0 mm 2 mps 751 mmHg 42%
    20:00 +34°C° 0 mm 3 mps 752 mmHg 45%
    21:00 +31°C° 0 mm 3 mps 753 mmHg 47%
    22:00 +31°C° 0 mm 3 mps 753 mmHg 52%
    23:00 +30°C° 0 mm 3 mps 753 mmHg 57%

    30 April, Tuesday

    Time Temperature Precipitation Wind Pressure Humidity
    00:00 +30°C° 0 mm 4 mps 753 mmHg 62%
    01:00 +30°C° 0 mm 4 mps 753 mmHg 64%
    02:00 +29°C° 0 mm 4 mps 753 mmHg 66%
    03:00 +29°C° 0 mm 4 mps 753 mmHg 69%
    04:00 +28°C° 0 mm 4 mps 753 mmHg 70%
    05:00 +28°C° 0 mm 4 mps 753 mmHg 71%
    06:00 +27°C° 0 mm 4 mps 754 mmHg 73%
    07:00 +29°C° 0 mm 4 mps 754 mmHg 66%
    08:00 +33°C° 0 mm 4 mps 754 mmHg 60%
    09:00 +35°C° 0 mm 5 mps 754 mmHg 53%
    10:00 +36°C° 0 mm 5 mps 754 mmHg 49%
    11:00 +39°C° 0 mm 5 mps 753 mmHg 44%
    12:00 +40°C° 0 mm 5 mps 752 mmHg 39%
    13:00 +41°C° 0 mm 5 mps 752 mmHg 37%
    14:00 +41°C° 0 mm 5 mps 751 mmHg 36%
    15:00 +42°C° 0 mm 5 mps 750 mmHg 34%
    16:00 +41°C° 0 mm 5 mps 750 mmHg 37%
    17:00 +38°C° 0 mm 4 mps 750 mmHg 40%
    18:00 +37°C° 0 mm 3 mps 751 mmHg 43%
    19:00 +36°C° 0 mm 3 mps 752 mmHg 45%
    20:00 +35°C° 0 mm 3 mps 752 mmHg 46%
    21:00 +34°C° 0 mm 3 mps 753 mmHg 48%
    22:00 +33°C° 0 mm 4 mps 753 mmHg 51%
    23:00 +32°C° 0 mm 5 mps 753 mmHg 54%

    1 May, Wednesday

    Time Temperature Precipitation Wind Pressure Humidity
    00:00 +32°C° 0 mm 5 mps 753 mmHg 56%
    01:00 +30°C° 0 mm 5 mps 753 mmHg 59%
    02:00 +29°C° 0 mm 5 mps 753 mmHg 61%
    03:00 +29°C° 0 mm 5 mps 753 mmHg 63%
    04:00 +28°C° 0 mm 4 mps 753 mmHg 66%
    05:00 +28°C° 0 mm 4 mps 753 mmHg 68%
    06:00 +27°C° 0 mm 4 mps 754 mmHg 71%
    07:00 +29°C° 0 mm 4 mps 754 mmHg 65%
    08:00 +32°C° 0 mm 4 mps 754 mmHg 58%
    09:00 +34°C° 0 mm 5 mps 754 mmHg 52%
    10:00 +36°C° 0 mm 4 mps 754 mmHg 47%
    11:00 +38°C° 0 mm 4 mps 753 mmHg 42%
    12:00 +41°C° 0 mm 4 mps 753 mmHg 36%
    13:00 +41°C° 0 mm 4 mps 752 mmHg 35%
    14:00 +41°C° 0 mm 5 mps 751 mmHg 34%
    15:00 +42°C° 0 mm 5 mps 750 mmHg 32%
    16:00 +41°C° 0 mm 4 mps 751 mmHg 36%
    17:00 +38°C° 0 mm 4 mps 751 mmHg 39%
    18:00 +37°C° 0 mm 3 mps 751 mmHg 43%
    19:00 +36°C° 0 mm 3 mps 752 mmHg 45%
    20:00 +35°C° 0 mm 3 mps 752 mmHg 47%
    21:00 +34°C° 0 mm 3 mps 753 mmHg 49%
    22:00 +33°C° 0 mm 4 mps 753 mmHg 52%
    23:00 +32°C° 0 mm 4 mps 753 mmHg 54%
    Show more